• In Netherlands
  • List of Countries
  • For 7 days
  • Water Temperature
  • Satellite Maps
  • Weather Map
  • Weather Widgets
  • user-avatar
    Login

    Hourly Weather Kipungo

    Today, 22 September, Friday

    Time Temperature Precipitation Wind Pressure Humidity
    00:00 +23°C° 0 mm 2 mps 654 mmHg 57%
    01:00 +22°C° 0 mm 1 mps 654 mmHg 61%
    02:00 +21°C° 0 mm 1 mps 653 mmHg 64%
    03:00 +21°C° 0 mm 1 mps 653 mmHg 66%
    04:00 +20°C° 0 mm 1 mps 653 mmHg 68%
    05:00 +21°C° 0 mm 1 mps 653 mmHg 64%
    06:00 +22°C° 0 mm 1 mps 654 mmHg 59%
    07:00 +23°C° 0 mm 1 mps 654 mmHg 55%
    08:00 +26°C° 0 mm 2 mps 655 mmHg 43%
    09:00 +30°C° 0 mm 2 mps 656 mmHg 32%
    10:00 +35°C° 0 mm 3 mps 657 mmHg 20%
    11:00 +36°C° 0 mm 3 mps 656 mmHg 17%
    12:00 +38°C° 0 mm 3 mps 656 mmHg 15%
    13:00 +39°C° 0 mm 3 mps 655 mmHg 12%
    14:00 +39°C° 0 mm 3 mps 655 mmHg 12%
    15:00 +39°C° 0 mm 2 mps 654 mmHg 11%
    16:00 +39°C° 0 mm 2 mps 654 mmHg 11%
    17:00 +36°C° 0 mm 2 mps 654 mmHg 14%
    18:00 +32°C° 0 mm 2 mps 654 mmHg 17%
    19:00 +30°C° 0 mm 1 mps 653 mmHg 20%
    20:00 +28°C° 0 mm 2 mps 654 mmHg 28%
    21:00 +27°C° 0 mm 2 mps 654 mmHg 36%
    22:00 +26°C° 0 mm 2 mps 654 mmHg 44%
    23:00 +25°C° 0 mm 2 mps 653 mmHg 48%

    Tomorrow, 23 September, Saturday

    Time Temperature Precipitation Wind Pressure Humidity
    00:00 +24°C° 0 mm 2 mps 653 mmHg 52%
    01:00 +23°C° 0 mm 1 mps 653 mmHg 56%
    02:00 +22°C° 0 mm 1 mps 653 mmHg 55%
    03:00 +22°C° 0 mm 1 mps 652 mmHg 55%
    04:00 +22°C° 0 mm 1 mps 652 mmHg 54%
    05:00 +22°C° 0 mm 1 mps 653 mmHg 50%
    06:00 +23°C° 0 mm 1 mps 653 mmHg 47%
    07:00 +24°C° 0 mm 1 mps 654 mmHg 43%
    08:00 +27°C° 0 mm 2 mps 655 mmHg 34%
    09:00 +32°C° 0 mm 4 mps 656 mmHg 25%
    10:00 +36°C° 0 mm 5 mps 657 mmHg 16%
    11:00 +37°C° 0 mm 5 mps 656 mmHg 14%
    12:00 +40°C° 0 mm 4 mps 655 mmHg 12%
    13:00 +41°C° 0 mm 4 mps 655 mmHg 10%
    14:00 +41°C° 0 mm 4 mps 654 mmHg 10%
    15:00 +40°C° 0 mm 3 mps 654 mmHg 10%
    16:00 +40°C° 0 mm 3 mps 653 mmHg 9%
    17:00 +37°C° 0 mm 3 mps 653 mmHg 13%
    18:00 +34°C° 0 mm 2 mps 653 mmHg 17%
    19:00 +30°C° 0 mm 2 mps 653 mmHg 20%
    20:00 +28°C° 0 mm 2 mps 654 mmHg 31%
    21:00 +26°C° 0 mm 2 mps 654 mmHg 42%
    22:00 +24°C° 0 mm 3 mps 654 mmHg 52%
    23:00 +23°C° 0 mm 2 mps 654 mmHg 57%

    Day after tomorrow, 24 September, Sunday

    Time Temperature Precipitation Wind Pressure Humidity
    00:00 +21°C° 0 mm 2 mps 653 mmHg 62%
    01:00 +20°C° 0 mm 2 mps 653 mmHg 67%
    02:00 +20°C° 0 mm 2 mps 653 mmHg 69%
    03:00 +20°C° 0 mm 1 mps 652 mmHg 70%
    04:00 +19°C° 0 mm 1 mps 652 mmHg 72%
    05:00 +20°C° 0 mm 1 mps 653 mmHg 68%
    06:00 +21°C° 0 mm 1 mps 654 mmHg 64%
    07:00 +22°C° 0 mm 1 mps 654 mmHg 60%
    08:00 +26°C° 0 mm 1 mps 655 mmHg 47%
    09:00 +31°C° 0 mm 1 mps 657 mmHg 33%
    10:00 +36°C° 0 mm 1 mps 658 mmHg 20%
    11:00 +37°C° 0 mm 1 mps 657 mmHg 18%
    12:00 +39°C° 0 mm 2 mps 656 mmHg 15%
    13:00 +40°C° 0 mm 2 mps 655 mmHg 13%
    14:00 +40°C° 0 mm 2 mps 655 mmHg 13%
    15:00 +39°C° 0 mm 2 mps 654 mmHg 12%
    16:00 +39°C° 0 mm 2 mps 654 mmHg 12%
    17:00 +36°C° 0 mm 2 mps 654 mmHg 16%
    18:00 +34°C° 0 mm 3 mps 654 mmHg 21%
    19:00 +30°C° 0 mm 3 mps 654 mmHg 26%
    20:00 +28°C° 0 mm 3 mps 654 mmHg 36%
    21:00 +26°C° 0 mm 3 mps 654 mmHg 46%
    22:00 +24°C° 0 mm 3 mps 654 mmHg 56%
    23:00 +23°C° 0 mm 2 mps 654 mmHg 61%

    25 September, Monday

    Time Temperature Precipitation Wind Pressure Humidity
    00:00 +21°C° 0 mm 2 mps 653 mmHg 67%
    01:00 +20°C° 0 mm 2 mps 653 mmHg 73%
    02:00 +19°C° 0 mm 2 mps 653 mmHg 76%
    03:00 +18°C° 0 mm 2 mps 652 mmHg 79%
    04:00 +19°C° 0 mm 1 mps 652 mmHg 83%
    05:00 +20°C° 0 mm 1 mps 653 mmHg 78%
    06:00 +20°C° 0 mm 1 mps 653 mmHg 74%
    07:00 +21°C° 0 mm 1 mps 654 mmHg 70%
    08:00 +25°C° 0 mm 1 mps 655 mmHg 55%
    09:00 +29°C° 0 mm 1 mps 656 mmHg 40%
    10:00 +33°C° 0 mm 1 mps 656 mmHg 25%
    11:00 +35°C° 0 mm 1 mps 656 mmHg 21%
    12:00 +37°C° 0 mm 1 mps 655 mmHg 18%
    13:00 +40°C° 0 mm 1 mps 655 mmHg 14%
    14:00 +40°C° 0 mm 1 mps 654 mmHg 14%
    15:00 +39°C° 0 mm 1 mps 654 mmHg 13%
    16:00 +39°C° 0 mm 1 mps 653 mmHg 12%
    17:00 +36°C° 0 mm 2 mps 653 mmHg 18%
    18:00 +32°C° 0 mm 2 mps 653 mmHg 23%
    19:00 +30°C° 0 mm 3 mps 653 mmHg 28%
    20:00 +28°C° 0 mm 3 mps 653 mmHg 37%
    21:00 +26°C° 0 mm 3 mps 653 mmHg 46%
    22:00 +24°C° 0 mm 3 mps 653 mmHg 55%
    23:00 +22°C° 0 mm 3 mps 653 mmHg 60%

    26 September, Tuesday

    Time Temperature Precipitation Wind Pressure Humidity
    00:00 +21°C° 0 mm 2 mps 652 mmHg 65%
    01:00 +20°C° 0 mm 2 mps 652 mmHg 70%
    02:00 +19°C° 0 mm 2 mps 652 mmHg 73%
    03:00 +18°C° 0 mm 2 mps 652 mmHg 76%
    04:00 +18°C° 0 mm 2 mps 652 mmHg 79%
    05:00 +20°C° 0 mm 1 mps 652 mmHg 74%
    06:00 +21°C° 0 mm 1 mps 653 mmHg 70%
    07:00 +19°C° 0 mm 0 mps 653 mmHg 65%
    08:00 +25°C° 0 mm 1 mps 654 mmHg 49%
    09:00 +29°C° 0 mm 2 mps 655 mmHg 34%
    10:00 +33°C° 0 mm 3 mps 655 mmHg 19%
    11:00 +35°C° 0 mm 3 mps 655 mmHg 16%
    12:00 +37°C° 0 mm 3 mps 654 mmHg 13%
    13:00 +39°C° 0 mm 3 mps 654 mmHg 10%
    14:00 +39°C° 0 mm 2 mps 653 mmHg 10%
    15:00 +38°C° 0 mm 2 mps 653 mmHg 10%
    16:00 +38°C° 0 mm 2 mps 652 mmHg 10%
    17:00 +35°C° 0 mm 3 mps 652 mmHg 16%
    18:00 +33°C° 0 mm 3 mps 652 mmHg 22%
    19:00 +29°C° 0 mm 4 mps 652 mmHg 29%
    20:00 +27°C° 0 mm 3 mps 652 mmHg 38%
    21:00 +25°C° 0 mm 3 mps 652 mmHg 46%
    22:00 +24°C° 0 mm 3 mps 652 mmHg 55%
    23:00 +22°C° 0 mm 3 mps 652 mmHg 60%

    27 September, Wednesday

    Time Temperature Precipitation Wind Pressure Humidity
    00:00 +21°C° 0 mm 2 mps 652 mmHg 64%
    01:00 +20°C° 0 mm 2 mps 652 mmHg 68%
    02:00 +19°C° 0 mm 2 mps 651 mmHg 71%
    03:00 +19°C° 0 mm 1 mps 651 mmHg 74%
    04:00 +19°C° 0 mm 1 mps 651 mmHg 78%
    05:00 +19°C° 0 mm 1 mps 652 mmHg 73%
    06:00 +20°C° 0 mm 1 mps 653 mmHg 68%
    07:00 +21°C° 0 mm 1 mps 653 mmHg 64%
    08:00 +25°C° 0 mm 1 mps 654 mmHg 49%
    09:00 +29°C° 0 mm 2 mps 655 mmHg 34%
    10:00 +34°C° 0 mm 2 mps 656 mmHg 19%
    11:00 +36°C° 0 mm 2 mps 655 mmHg 16%
    12:00 +37°C° 0 mm 2 mps 655 mmHg 13%
    13:00 +39°C° 0 mm 2 mps 654 mmHg 10%
    14:00 +39°C° 0 mm 2 mps 654 mmHg 10%
    15:00 +38°C° 0 mm 2 mps 653 mmHg 10%
    16:00 +38°C° 0 mm 2 mps 653 mmHg 10%
    17:00 +35°C° 0 mm 2 mps 653 mmHg 15%
    18:00 +33°C° 0 mm 3 mps 653 mmHg 20%
    19:00 +29°C° 0 mm 3 mps 653 mmHg 25%
    20:00 +27°C° 0 mm 3 mps 653 mmHg 34%
    21:00 +25°C° 0 mm 3 mps 653 mmHg 42%
    22:00 +24°C° 0 mm 3 mps 653 mmHg 51%
    23:00 +23°C° 0 mm 2 mps 652 mmHg 56%
    Show more